HS5BOG-13 Weather Reports


time (UTC)temp
C
wind
direction
speed
KPH
gust
KPH
rain 1hr
cm
rain 24hr
cm
rain mn
cm
humidity
%
barometer
mb
20260504081552 33 0.0 0.0 0.00 0.00 0.00 38 988.9
20260504080546 33 0.0 0.0 0.00 0.00 0.00 41 989.1
20260504050406 31 0.0 0.0 0.00 0.00 0.00 46 992.4
20260504045400 31 0.0 0.0 0.00 0.00 0.00 45 992.7
20260504044355 31 0.0 0.0 0.00 0.00 0.00 49 992.7
20260504043349 31 0.0 0.0 0.00 0.00 0.00 50 992.9
20260504042343 31 0.0 0.0 0.00 0.00 0.00 51 993.0
20260504041338 31 0.0 0.0 0.00 0.00 0.00 50 993.1
20260504040332 31 0.0 0.0 0.00 0.00 0.00 51 993.2
20260504035327 31 0.0 0.0 0.00 0.00 0.00 52 993.3
20260504034321 31 0.0 0.0 0.00 0.00 0.00 53 993.5
20260504033316 31 0.0 0.0 0.00 0.00 0.00 53 993.6
20260504032310 30 0.0 0.0 0.00 0.00 0.00 54 993.6
20260504031305 30 0.0 0.0 0.00 0.00 0.00 53 993.8
20260504030303 30 0.0 0.0 0.00 0.00 0.00 53 993.8
20260504025252 30 0.0 0.0 0.00 0.00 0.00 54 993.9
20260504024246 30 0.0 0.0 0.00 0.00 0.00 53 994.0
20260504022231 30 0.0 0.0 0.00 0.00 0.00 56 994.1
20260504021226 30 0.0 0.0 0.00 0.00 0.00 56 994.1
20260504020220 30 0.0 0.0 0.00 0.00 0.00 57 994.1
20260504015215 30 0.0 0.0 0.00 0.00 0.00 59 994.0
20260504014209 30 0.0 0.0 0.00 0.00 0.00 58 993.9
20260504013200 30 0.0 0.0 0.00 0.00 0.00 61 993.8
20260504012155 30 0.0 0.0 0.00 0.00 0.00 62 993.8
20260504011149 30 0.0 0.0 0.00 0.00 0.00 63 993.7
20260504010143 29 0.0 0.0 0.00 0.00 0.00 64 993.6
20260504005138 29 0.0 0.0 0.00 0.00 0.00 63 993.4
20260504004132 29 0.0 0.0 0.00 0.00 0.00 63 993.3
20260504003127 29 0.0 0.0 0.00 0.00 0.00 61 993.1
20260504002121 28 0.0 0.0 0.00 0.00 0.00 61 993.0
20260504001116 28 0.0 0.0 0.00 0.00 0.00 59 993.1
20260504000110 28 0.0 0.0 0.00 0.00 0.00 57 992.8
20260503235104 28 0.0 0.0 0.00 0.00 0.00 60 992.8
20260503234059 28 0.0 0.0 0.00 0.00 0.00 58 992.8
20260503233053 28 0.0 0.0 0.00 0.00 0.00 58 992.7
20260503232048 28 0.0 0.0 0.00 0.00 0.00 58 992.7
20260503231042 28 0.0 0.0 0.00 0.00 0.00 60 992.4
20260503230036 29 0.0 0.0 0.00 0.00 0.00 59 992.3
20260503225031 28 0.0 0.0 0.00 0.00 0.00 58 992.2
20260503224025 29 0.0 0.0 0.00 0.00 0.00 60 992.2
20260503223020 29 0.0 0.0 0.00 0.00 0.00 58 992.1
20260503222014 29 0.0 0.0 0.00 0.00 0.00 59 991.8
20260503221009 29 0.0 0.0 0.00 0.00 0.00 58 991.5
20260503220003 29 0.0 0.0 0.00 0.00 0.00 58 991.6
20260503214917 29 0.0 0.0 0.00 0.00 0.00 57 991.3
20260503213911 29 0.0 0.0 0.00 0.00 0.00 57 991.2
20260503212906 29 0.0 0.0 0.00 0.00 0.00 55 991.1
20260503211700 29 0.0 0.0 0.00 0.00 0.00 55 990.8
20260503210654 29 0.0 0.0 0.00 0.00 0.00 53 990.8
20260503205649 30 0.0 0.0 0.00 0.00 0.00 54 990.8
20260503204643 30 0.0 0.0 0.00 0.00 0.00 54 990.8
20260503203637 30 0.0 0.0 0.00 0.00 0.00 52 990.9
20260503202632 30 0.0 0.0 0.00 0.00 0.00 52 990.8
20260503201626 29 0.0 0.0 0.00 0.00 0.00 51 990.7
20260503200621 30 0.0 0.0 0.00 0.00 0.00 50 990.7
20260503195615 30 0.0 0.0 0.00 0.00 0.00 50 990.8
20260503194610 30 0.0 0.0 0.00 0.00 0.00 48 990.8
20260503193604 30 0.0 0.0 0.00 0.00 0.00 48 990.9
20260503192559 30 0.0 0.0 0.00 0.00 0.00 49 990.9
20260503191553 30 0.0 0.0 0.00 0.00 0.00 49 990.9
20260503190547 30 0.0 0.0 0.00 0.00 0.00 50 991.0
20260503185542 30 0.0 0.0 0.00 0.00 0.00 48 990.9
20260503184536 30 0.0 0.0 0.00 0.00 0.00 47 991.1
20260503183531 30 0.0 0.0 0.00 0.00 0.00 46 991.0
20260503182525 30 0.0 0.0 0.00 0.00 0.00 46 991.3
20260503181519 30 0.0 0.0 0.00 0.00 0.00 45 991.4
20260503180514 31 0.0 0.0 0.00 0.00 0.00 42 991.4
20260503175508 31 0.0 0.0 0.00 0.00 0.00 43 991.3
20260503174503 31 0.0 0.0 0.00 0.00 0.00 41 991.2
20260503173457 31 0.0 0.0 0.00 0.00 0.00 41 991.2
20260503172451 31 0.0 0.0 0.00 0.00 0.00 41 991.2
20260503171446 31 0.0 0.0 0.00 0.00 0.00 41 991.2
20260503170440 31 0.0 0.0 0.00 0.00 0.00 41 991.2
20260503150333 32 0.0 0.0 0.00 0.00 0.00 38 990.7
20260503140300 32 0.0 0.0 0.00 0.00 0.00 40 989.8
20260503131232 33 0.0 0.0 0.00 0.00 0.00 37 988.8
20260503130226 33 0.0 0.0 0.00 0.00 0.00 37 988.6
20260503120153 33 0.0 0.0 0.00 0.00 0.00 31 987.5
20260503110119 33 0.0 0.0 0.00 0.00 0.00 30 986.7